Home   Weather   Jeffersonville   Past weeks
Flag for USA

Past Weather in Jeffersonville, Indiana, USA — Yesterday and Last 2 Weeks

Now
77 °F

Light rain. Broken clouds.


Feels Like: 79 °F
Forecast: 79 / 71 °F
Wind: 9 mph from North

Location: Bowman Field

Current Time: Jul 22, 2019 at 3:32:32 pm

Latest Report: Jul 22, 2019 at 2:53 pm


Visibility: 10 mi

Pressure: 29.90 "Hg

Humidity: 74%

Dew Point: 68 °F

Location of JeffersonvilleLocation

Past Weather in Jeffersonville — Graph

°F

Jeffersonville Temperature Yesterday

Maximum temperature yesterday: 92 °F (at 1:53 pm)
Minimum temperature yesterday: 75 °F (at 11:09 pm)
Average temperature yesterday: 83 °F

High & Low Weather Summary for the Past Weeks

 TemperatureHumidityPressure
High94 °F (Jul 18, 5:53 pm)91% (Jul 10, 6:53 am)30.16 "Hg (Jul 10, 6:53 am)
Low63 °F (Jul 13, 2:53 am)32% (Jul 13, 6:53 pm)29.81 "Hg (Jul 11, 5:53 pm)
Average82 °F68%29.96 "Hg
* Reported Jul 7 1:53 pm — Jul 22 1:53 pm, Jeffersonville. Weather by CustomWeather, © 2019

Note: Actual official high and low records may vary slightly from our data, if they occured in-between our weather recording intervals... More about our weather records

Advertising

Jeffersonville Weather History for the Previous 24 Hours

Scroll right to see more
 ConditionsComfort  
Time TempWeatherWind HumidityBarometerVisibility
1:53 pm
Mon, Jul 22
81 °FLight rain. Broken clouds.9 mph72%29.89 "Hg10 mi
1:22 pm82 °FBroken clouds.8 mph70%29.92 "Hg10 mi
12:53 pm80 °FMostly cloudy.6 mph74%29.90 "Hg10 mi
12:35 pm80 °FMostly cloudy.3 mph74%29.92 "Hg10 mi
11:53 am78 °FMostly cloudy.5 mph79%29.91 "Hg10 mi
10:53 am78 °FMostly cloudy.5 mph79%29.90 "Hg10 mi
10:44 am78 °FMostly cloudy.3 mph79%29.92 "Hg10 mi
9:53 am77 °FMostly cloudy.6 mph82%29.91 "Hg10 mi
9:03 am75 °FMostly cloudy.5 mph88%29.93 "Hg10 mi
8:53 am75 °FCloudy.7 mph88%29.90 "Hg10 mi
7:53 am74 °FOvercast.5 mph91%29.90 "Hg10 mi
6:53 am74 °FFog.5 mph91%29.89 "Hg6 mi
5:53 am74 °FPassing clouds.5 mph91%29.87 "Hg9 mi
5:07 am74 °FPassing clouds.5 mph91%29.90 "Hg10 mi
4:53 am74 °FPassing clouds.3 mph91%29.88 "Hg10 mi
3:53 am74 °FClear.No wind91%29.88 "Hg10 mi
2:53 am74 °FPassing clouds.3 mph91%29.89 "Hg10 mi
1:53 am75 °FClear.No wind85%29.88 "Hg10 mi
12:53 am74 °FLight rain. Clear.3 mph88%29.91 "Hg10 mi
11:53 pm
Sun, Jul 21
75 °FRain. Passing clouds.No wind85%29.93 "Hg5 mi
11:09 pm75 °FMostly cloudy.3 mph88%29.95 "Hg10 mi
10:53 pm76 °FThundershowers. Overcast.7 mph80%29.92 "Hg8 mi
10:29 pm79 °FThunderstorms. Passing clouds.15 mph69%29.94 "Hg10 mi
10:16 pm83 °FThundershowers. Passing clouds.9 mph77%29.92 "Hg10 mi
9:53 pm83 °FClear.8 mph77%29.89 "Hg10 mi
8:53 pm84 °FPassing clouds.10 mph72%29.89 "Hg10 mi
7:53 pm85 °FSunny.10 mph70%29.90 "Hg10 mi
6:53 pm86 °FSunny.10 mph63%29.88 "Hg10 mi
5:53 pm86 °FSunny.9 mph65%29.89 "Hg10 mi
4:53 pm85 °FSunny.12 mph70%29.90 "Hg10 mi
4:04 pm86 °FPassing clouds.16 mph63%29.95 "Hg10 mi
3:53 pm88 °FThunderstorms. Scattered clouds.12 mph59%29.93 "Hg10 mi
3:10 pm88 °FBroken clouds.15 mph65%29.94 "Hg10 mi
Weather by CustomWeather, © 2019

See weather overview